User: anonymous   Login
Location: Unspecified
(0.0000°N, 0.0000°E)
Time: 12:20:30
(UTC+00:00)
Language:

MUOS 3 - Orbit

View from above orbital plane
View from above orbital plane
View from above satellite
View from above satellite

Ground track
Ground track

The orbit data is extracted from the following two-line orbital elements,

1 40374U 15002A   17097.41780920 0.00000000  00000-0  00000-0 0    04
2 40374   4.1653 330.8132 0049516 182.0789 177.9137  1.00270000    04
Epoch (UTC): 07 April 2017 10:01:38
Eccentricity: 0.0049516
inclination: 4.1653°
perigee height: 35578 km
apogee height: 35995 km
right ascension of ascending node: 330.8132°
argument of perigee: 182.0789°
revolutions per day: 1.00270000
mean anomaly at epoch: 177.9137°
orbit number at epoch: 0

The dashed part of the orbit path shows where the satellite is in the earth's shadow,  

DLR